Weather History for Northeast Philadelphia, PA

Change the Weather History Date:

Thursday, February 14, 2013

  Actual Average Record
Temperature  
Mean Temperature 38 °F -  
Max Temperature 46 °F 41 °F 59 °F (2011)
Min Temperature 30 °F 25 °F 8 °F (2003)
Degree Days  
Heating Degree Days 27    
Moisture  
Dew Point 30 °F    
Average Humidity 79    
Maximum Humidity 100    
Minimum Humidity 46    
Precipitation  
Precipitation 0.04 in - - ()
Sea Level Pressure  
Sea Level Pressure 29.91 in    
Wind  
Wind Speed 5 mph (West)    
Max Wind Speed 12 mph    
Max Gust Speed -    
Visibility 6 miles    
Events Snow    
Averages and records for this station are not official NWS values.
T = Trace of Precipitation, MM = Missing Value Source: NWS Daily Summary

Daily Weather History Graph

Daily Weather History Graph

Search for Another Location

Airport:

Trip Planner

Search our weather history database for the weather conditions in past years. The results will help you decide how hot, cold, wet, or windy it might be!

Date:

Astronomy

Feb. 14, 2013 Rise Set
Actual Time 6:54 AM EST 5:34 PM EST
Civil Twilight 6:26 AM EST 6:02 PM EST
Nautical Twilight 5:54 AM EST 6:34 PM EST
Astronomical Twilight 5:22 AM EST 7:06 PM EST
Moon 8:54 AM EST (2/14) 10:35 PM EST (2/14)
Length of Visible Light 11h 36m
Length of Day
10h 40m
Waxing Crescent, 21% of the Moon is Illuminated
Feb 14
Waxing Crescent
Feb 17
First Quarter
Feb 25
Full
Mar 4
Last Quarter
Mar 11
New

Hourly Weather History & Observations

Time (EST) Temp. Windchill Dew Point Humidity Pressure Visibility Wind Dir Wind Speed Gust Speed Precip Events Conditions
12:43 AM 33.8 °F 29.6 °F 30.2 °F 87% 29.75 in 2.5 mi NNW 4.6 mph - 0.02 in Snow Light Snow
12:49 AM 33.8 °F 29.6 °F 32.0 °F 93% 29.74 in 3.0 mi NNW 4.6 mph - 0.03 in Snow Light Snow
12:54 AM 33.1 °F 28.7 °F 32.0 °F 96% 29.75 in 3.0 mi NNW 4.6 mph - 0.03 in Snow Light Snow
1:50 AM 33.8 °F 29.6 °F 30.2 °F 87% 29.78 in 4.0 mi WNW 4.6 mph - 0.00 in   Mostly Cloudy
1:54 AM 33.1 °F 28.7 °F 32.0 °F 96% 29.78 in 5.0 mi WNW 4.6 mph - 0.00 in   Mostly Cloudy
2:15 AM 33.8 °F 30.8 °F 32.0 °F 93% 29.79 in 5.0 mi WNW 3.5 mph - N/A   Overcast
2:47 AM 33.8 °F 27.7 °F 32.0 °F 93% 29.80 in 5.0 mi NNW 6.9 mph - N/A   Overcast
2:54 AM 34.0 °F 28.0 °F 32.0 °F 92% 29.81 in 5.0 mi NW 6.9 mph - N/A   Overcast
3:01 AM 33.8 °F 28.6 °F 30.2 °F 87% 29.81 in 4.0 mi NW 5.8 mph - 0.01 in   Overcast
3:26 AM 33.8 °F 29.6 °F 32.0 °F 93% 29.82 in 4.0 mi NW 4.6 mph - 0.01 in   Overcast
3:54 AM 33.1 °F 30.0 °F 32.0 °F 96% 29.83 in 4.0 mi West 3.5 mph - 0.01 in   Overcast
4:03 AM 33.8 °F 30.8 °F 32.0 °F 93% 29.83 in 4.0 mi WSW 3.5 mph - N/A   Overcast
4:54 AM 33.1 °F 30.0 °F 32.0 °F 96% 29.85 in 4.0 mi WNW 3.5 mph - N/A   Partly Cloudy
5:17 AM 30.2 °F 26.7 °F 30.2 °F 100% 29.86 in 4.0 mi West 3.5 mph - N/A   Scattered Clouds
5:54 AM 32.0 °F 28.7 °F 30.9 °F 96% 29.88 in 3.0 mi SW 3.5 mph - N/A   Clear
6:54 AM 30.9 °F 27.5 °F 30.9 °F 100% 29.92 in 3.0 mi WSW 3.5 mph - N/A   Clear
7:01 AM 30.2 °F 26.7 °F 30.2 °F 100% 29.92 in 2.5 mi WSW 3.5 mph - N/A   Clear
7:22 AM 32.0 °F 26.4 °F 30.2 °F 93% 29.92 in 3.0 mi NW 5.8 mph - N/A   Clear
7:54 AM 34.0 °F 27.2 °F 30.9 °F 89% 29.95 in 4.0 mi WNW 8.1 mph - N/A   Clear
8:54 AM 37.0 °F 31.6 °F 32.0 °F 82% 29.97 in 5.0 mi NW 6.9 mph - N/A   Haze
9:54 AM 39.0 °F 31.8 °F 32.0 °F 76% 29.98 in 8.0 mi NNW 11.5 mph - N/A   Clear
10:54 AM 41.0 °F 37.1 °F 30.9 °F 67% 29.99 in 10.0 mi NNW 5.8 mph - N/A   Clear
11:54 AM 43.0 °F 40.3 °F 28.9 °F 58% 29.99 in 10.0 mi NW 4.6 mph - N/A   Clear
12:54 PM 44.1 °F 42.5 °F 27.0 °F 51% 29.97 in 10.0 mi WNW 3.5 mph - N/A   Clear
1:54 PM 46.0 °F 41.4 °F 28.9 °F 51% 29.97 in 10.0 mi West 9.2 mph - N/A   Scattered Clouds
2:54 PM 45.0 °F 40.6 °F 28.0 °F 52% 29.98 in 10.0 mi WSW 8.1 mph - N/A   Scattered Clouds
3:54 PM 45.0 °F 41.2 °F 26.1 °F 48% 29.98 in 10.0 mi WSW 6.9 mph - N/A   Unknown
4:23 PM 46.4 °F 43.5 °F 26.6 °F 46% 29.98 in 10.0 mi WSW 5.8 mph - N/A   Partly Cloudy
4:54 PM 44.1 °F 39.5 °F 27.0 °F 51% 29.99 in 10.0 mi West 8.1 mph - N/A   Partly Cloudy
5:54 PM 42.1 °F 40.2 °F 27.0 °F 55% 29.99 in 10.0 mi SW 3.5 mph - N/A   Clear
6:54 PM 42.1 °F 39.2 °F 28.0 °F 58% 30.01 in 10.0 mi SSW 4.6 mph - N/A   Clear
7:54 PM 39.9 °F 35.8 °F 28.0 °F 63% 30.02 in 10.0 mi SW 5.8 mph - N/A   Clear
8:54 PM 39.0 °F - 28.9 °F 67% 30.03 in 10.0 mi Calm Calm - N/A   Clear
9:54 PM 37.9 °F 33.5 °F 28.9 °F 70% 30.04 in 9.0 mi SSW 5.8 mph - N/A   Clear
10:54 PM 36.0 °F 32.1 °F 28.9 °F 76% 30.03 in 8.0 mi SSW 4.6 mph - N/A   Clear
11:54 PM 35.1 °F 32.2 °F 30.0 °F 82% 30.03 in 6.0 mi South 3.5 mph - N/A   Haze